CW5397 Weather Reports


Display with metric or nautical units.
time (UTC)temp
F
wind
direction
speed
MPH
gust
MPH
rain 1hr
in
rain 24hr
in
rain mn
in
humidity
%
barometer
mb
20181216081142 35 227 0.0 0.0 0.00 0.39 0.02 98 1011.1
20181216080133 35 227 0.0 0.0 0.00 0.41 0.02 98 1011.1
20181216075225 35 227 0.0 0.0 0.00 0.41 0.02 98 1013.5
20181216074135 35 227 0.0 0.0 0.00 0.41 0.02 98 1011.0
20181216073130 35 227 0.0 1.0 0.00 0.41 0.02 98 1011.0
20181216072136 35 227 0.0 0.0 0.00 0.41 0.02 98 1011.0
20181216071130 35 227 0.0 0.0 0.00 0.41 0.02 98 1010.9
20181216070142 35 227 0.0 0.0 0.00 0.44 0.02 98 1010.9
20181216065138 35 227 0.0 0.0 0.00 0.44 0.02 98 1010.9
20181216064129 35 227 0.0 0.0 0.01 0.44 0.02 98 1011.0
20181216063142 35 227 0.0 0.0 0.01 0.44 0.02 98 1011.0
20181216062135 35 227 0.0 0.0 0.01 0.44 0.02 98 1010.9
20181216061126 35 227 0.0 0.0 0.01 0.44 0.02 98 1011.1
20181216060138 35 227 0.0 0.0 0.02 0.45 0.02 98 1011.1
20181216055128 35 227 0.0 0.0 0.02 0.45 0.02 98 1011.4
20181216054139 35 227 0.0 0.0 0.01 0.44 0.01 98 1011.5
20181216053126 35 228 0.0 0.0 0.01 0.44 0.01 98 1011.5
20181216052133 36 227 0.0 0.0 0.01 0.44 0.01 98 1011.9
20181216051141 36 227 0.0 0.0 0.01 0.44 0.01 98 1012.0
20181216050130 36 228 0.0 0.0 0.01 0.44 0.43 98 1012.0
20181216045142 36 228 0.0 0.0 0.01 0.44 0.43 98 1012.0
20181216044136 36 227 0.0 0.0 0.01 0.44 0.43 98 1012.0
20181216043137 36 227 0.0 0.0 0.01 0.44 0.43 98 1012.0
20181216042129 36 227 0.0 0.0 0.01 0.44 0.43 98 1012.2
20181216041143 36 227 0.0 0.0 0.01 0.44 0.43 98 1012.3
20181216040137 36 227 0.0 0.0 0.00 0.43 0.42 98 1012.3
20181216035128 36 227 0.0 0.0 0.00 0.43 0.42 98 1012.1
20181216034140 36 227 0.0 0.0 0.00 0.43 0.42 98 1012.5
20181216033133 36 227 0.0 1.0 0.00 0.43 0.42 98 1012.5
20181216032137 36 234 1.0 1.0 0.00 0.43 0.42 98 1012.5
20181216031141 36 203 0.0 0.0 0.01 0.43 0.42 98 1013.0
20181216030127 36 203 0.0 0.0 0.01 0.43 0.42 98 1013.0
20181216025135 35 203 0.0 0.0 0.01 0.43 0.42 98 1012.2
20181216024127 35 203 0.0 0.0 0.01 0.43 0.42 98 1012.6
20181216023138 35 203 0.0 0.0 0.01 0.43 0.42 98 1012.6
20181216022127 35 203 0.0 0.0 0.01 0.43 0.42 98 1012.5
20181216021129 35 203 0.0 0.0 0.00 0.42 0.41 98 1012.6
20181216020128 35 203 0.0 0.0 0.00 0.42 0.41 98 1012.6
20181216015135 35 203 0.0 0.0 0.00 0.42 0.41 98 1012.8
20181216014124 35 203 0.0 0.0 0.00 0.42 0.41 98 1012.9
20181216013121 35 203 1.0 1.0 0.00 0.42 0.41 98 1012.9
20181216012133 35 226 0.0 0.0 0.00 0.42 0.41 98 1012.8
20181216011128 35 226 0.0 1.0 0.00 0.42 0.41 98 1013.2
20181216010138 35 226 0.0 0.0 0.00 0.43 0.41 98 1013.2
20181216005136 35 226 0.0 1.0 0.00 0.43 0.41 98 1013.1
20181216004138 35 226 0.0 0.0 0.00 0.43 0.41 98 1013.1
20181216003122 35 226 0.0 0.0 0.00 0.43 0.41 98 1013.1
20181216002132 35 226 0.0 0.0 0.00 0.43 0.41 98 1013.1
20181216001139 35 226 0.0 0.0 0.00 0.43 0.41 98 1013.0
20181216000137 35 226 0.0 1.0 0.00 0.45 0.41 97 1013.0
20181215235128 35 226 0.0 1.0 0.00 0.45 0.41 97 1013.0
20181215234132 36 226 0.0 0.0 0.00 0.45 0.41 97 1012.8
20181215233126 36 226 0.0 0.0 0.00 0.45 0.41 97 1012.8
20181215232121 36 226 0.0 1.0 0.00 0.45 0.41 97 1012.8
20181215231127 36 226 0.0 0.0 0.00 0.45 0.41 97 1012.9
20181215230139 36 226 0.0 0.0 0.00 0.49 0.41 97 1012.9
20181215225129 36 226 0.0 0.0 0.00 0.49 0.41 97 1012.9
20181215224125 36 226 0.0 0.0 0.00 0.49 0.41 97 1012.9
20181215223137 36 226 0.0 0.0 0.00 0.49 0.41 97 1012.9
20181215222125 36 226 0.0 0.0 0.00 0.49 0.41 97 1013.2
20181215221135 37 226 0.0 0.0 0.01 0.49 0.41 97 1012.9
20181215220126 37 226 0.0 1.0 0.03 0.54 0.41 97 1012.9
20181215215135 37 226 0.0 1.0 0.03 0.54 0.41 97 1012.8
20181215214126 37 226 0.0 1.0 0.04 0.54 0.41 97 1012.8
20181215213132 37 226 0.0 0.0 0.05 0.54 0.41 97 1012.8
20181215212127 37 226 0.0 0.0 0.06 0.54 0.41 97 1013.2
20181215211132 37 226 0.0 0.0 0.06 0.53 0.40 97 1013.1
20181215210125 37 226 0.0 1.0 0.05 0.53 0.38 97 1013.1
20181215205133 38 226 0.0 2.0 0.05 0.53 0.38 97 1012.8
20181215204126 37 236 0.0 1.0 0.04 0.52 0.37 97 1012.6
20181215203126 38 174 0.0 0.0 0.03 0.51 0.36 97 1012.6
20181215202135 38 174 0.0 1.0 0.02 0.50 0.35 97 1012.6
20181215201134 38 226 0.0 1.0 0.04 0.49 0.34 97 1012.4
20181215200127 38 226 0.0 0.0 0.05 0.49 0.33 97 1012.4
20181215195136 38 226 0.0 1.0 0.05 0.49 0.33 97 1012.4
20181215194126 39 226 0.0 0.0 0.05 0.49 0.33 97 1012.6
20181215193135 39 226 0.0 0.0 0.05 0.49 0.33 97 1012.6
20181215192124 38 226 0.0 1.0 0.05 0.49 0.33 97 1012.7
20181215191134 38 226 0.0 1.0 0.02 0.46 0.30 97 1013.1
20181215190128 39 226 0.0 1.0 0.00 0.47 0.28 97 1013.1
20181215185139 39 226 0.0 1.0 0.00 0.47 0.28 97 1013.1
20181215184129 39 226 0.0 1.0 0.00 0.47 0.28 97 1013.1
20181215183127 39 226 0.0 1.0 0.00 0.47 0.28 97 1013.1
20181215182135 39 226 0.0 0.0 0.00 0.47 0.28 97 1013.1
20181215181130 39 226 0.0 0.0 0.00 0.47 0.28 97 1013.6
20181215180140 39 226 0.0 1.0 0.00 0.53 0.28 97 1013.6
20181215175134 39 227 0.0 0.0 0.00 0.53 0.28 97 1013.5
20181215174126 39 227 0.0 0.0 0.00 0.53 0.28 97 1013.7
20181215173133 39 227 0.0 0.0 0.00 0.53 0.28 97 1013.7
20181215172128 38 227 0.0 1.0 0.00 0.53 0.28 97 1014.0
20181215171140 39 229 0.0 0.0 0.00 0.53 0.28 97 1014.2
20181215170131 38 229 0.0 0.0 0.00 0.53 0.28 97 1014.2
20181215165135 38 229 0.0 1.0 0.00 0.53 0.28 97 1014.4
20181215164133 38 229 0.0 1.0 0.00 0.53 0.28 97 1014.4
20181215163125 38 229 0.0 0.0 0.00 0.53 0.28 97 1014.4
20181215162132 37 229 0.0 1.0 0.00 0.53 0.28 97 1014.7
20181215161135 38 229 0.0 0.0 0.00 0.53 0.28 97 1015.0
20181215160124 38 229 0.0 1.0 0.00 0.53 0.28 97 1015.0
20181215155126 38 212 0.0 0.0 0.00 0.53 0.28 97 1015.0
20181215154136 39 212 0.0 0.0 0.00 0.53 0.28 97 1015.4
20181215153125 39 212 0.0 0.0 0.00 0.53 0.28 97 1015.4
20181215152136 39 212 0.0 0.0 0.00 0.53 0.28 98 1015.9
20181215151142 39 212 0.0 1.0 0.00 0.53 0.28 98 1015.9
20181215150130 40 212 0.0 2.0 0.00 0.53 0.28 98 1015.9
20181215145121 39 236 0.0 4.0 0.00 0.53 0.28 98 1015.2
20181215144130 40 330 0.0 1.0 0.01 0.53 0.28 98 1014.3
20181215143123 39 37 0.0 1.0 0.01 0.53 0.28 98 1014.3
20181215142137 39 53 0.0 7.0 0.01 0.53 0.28 98 1014.3
20181215141126 39 62 5.0 6.0 0.01 0.53 0.28 98 1014.0
20181215140140 39 79 5.0 9.0 0.02 0.53 0.28 98 1014.0
20181215135130 38 356 0.0 0.0 0.02 0.53 0.28 98 1014.8
20181215134127 38 356 0.0 6.0 0.03 0.53 0.28 98 1014.2
20181215133139 38 60 4.0 7.0 0.03 0.52 0.27 98 1014.2
20181215132137 36 48 3.0 4.0 0.04 0.52 0.27 98 1015.2
20181215131137 34 201 0.0 1.0 0.05 0.52 0.27 97 1015.3
20181215130134 34 3 0.0 1.0 0.05 0.51 0.26 97 1015.3
20181215125136 34 71 0.0 5.0 0.06 0.51 0.26 97 1015.3
20181215124127 34 40 1.0 1.0 0.06 0.50 0.25 97 1016.6
20181215123121 34 347 0.0 1.0 0.06 0.49 0.24 97 1016.6
20181215122135 34 307 0.0 0.0 0.06 0.48 0.23 97 1016.6
20181215121132 34 307 0.0 0.0 0.06 0.47 0.22 97 1016.5
20181215120123 34 307 0.0 0.0 0.07 0.47 0.21 97 1016.5
20181215115133 34 307 0.0 0.0 0.07 0.46 0.20 97 1016.3
20181215114128 33 307 0.0 0.0 0.07 0.45 0.19 97 1016.4
20181215113124 33 307 0.0 0.0 0.06 0.44 0.18 97 1016.4
20181215112134 33 307 0.0 0.0 0.06 0.43 0.17 97 1016.4
20181215111127 33 307 0.0 0.0 0.06 0.42 0.16 97 1016.3
20181215110141 33 307 0.0 0.0 0.05 0.40 0.14 97 1016.3
20181215105132 33 307 0.0 0.0 0.04 0.39 0.13 97 1016.1
20181215104124 33 307 0.0 0.0 0.04 0.38 0.12 97 1015.9
20181215103123 33 307 0.0 0.0 0.04 0.38 0.12 97 1015.9
20181215102138 33 307 0.0 0.0 0.03 0.37 0.11 97 1016.0
20181215101125 33 307 0.0 0.0 0.02 0.36 0.10 97 1015.9
20181215100135 33 307 0.0 0.0 0.01 0.35 0.09 97 1015.9
20181215095130 33 307 0.0 0.0 0.01 0.35 0.09 97 1016.0
20181215094134 33 307 0.0 0.0 0.01 0.34 0.08 97 1015.7
20181215093125 34 307 0.0 0.0 0.01 0.34 0.08 97 1015.7
20181215092136 34 307 0.0 1.0 0.01 0.34 0.08 97 1016.0
20181215091137 34 337 0.0 0.0 0.02 0.34 0.08 97 1016.1
20181215090127 34 337 0.0 1.0 0.02 0.34 0.08 97 1016.1
20181215085140 34 347 0.0 0.0 0.03 0.34 0.08 97 1016.3
20181215084131 34 347 0.0 0.0 0.02 0.33 0.07 97 1016.6
20181215083128 34 347 0.0 0.0 0.02 0.33 0.07 97 1016.6
20181215082122 34 347 0.0 0.0 0.02 0.33 0.07 97 1016.8